Nogales, AZ

10:36 AM MST on February 24, 2017 (GMT -0700)
Nogales International

Weather History for KOLS - July, 2013

Change the Weather History Date:

Sunday, July 28, 2013

  Actual Average (KFHU) Record (KFHU)
Temperature  
Mean Temperature 80 °F -  
Max Temperature 93 °F 87 °F 95 °F (2000)
Min Temperature 66 °F 68 °F 32 °F (2011)
Cooling Degree Days 14    
Growing Degree Days 30 (Base 50)    
Moisture  
Dew Point 57 °F    
Average Humidity 49    
Maximum Humidity 87    
Minimum Humidity 24    
Precipitation  
Precipitation 0.00 in - - ()
Sea Level Pressure  
Sea Level Pressure 29.82 in    
Wind  
Wind Speed 4 mph (SSW)    
Max Wind Speed 14 mph    
Max Gust Speed 22 mph    
Visibility 10 miles    
Events      
Averages and records for this station are not official NWS values.
T = Trace of Precipitation, MM = Missing Value Source: NWS Daily Summary

Daily Weather History Graph

Daily Weather History Graph

Search for Another Location

Airport or City:

Trip Planner

Search our weather history database for the weather conditions in past years. The results will help you decide how hot, cold, wet, or windy it might be!

Date:

Astronomy

Jul. 28, 2013 Rise Set
Actual Time 5:37 AM MST 7:21 PM MST
Civil Twilight 5:10 AM MST 7:48 PM MST
Nautical Twilight 4:38 AM MST 8:20 PM MST
Astronomical Twilight 4:04 AM MST 8:54 PM MST
Moon 11:16 PM MST (7/28) 11:53 AM MST (7/28)
Length of Visible Light 14h 37m
Length of Day
13h 44m
Waning Gibbous, 60% of the Moon is Illuminated
Jul 28
Waning Gibbous
Jul 29
Last Quarter
Aug 6
New
Aug 14
First Quarter
Aug 20
Full

Hourly Weather History & Observations

Time (MST) Temp. Heat Index Dew Point Humidity Pressure Visibility Wind Dir Wind Speed Gust Speed Precip Events Conditions
12:54 AM 71.1 °F - 64.0 °F 78% 29.83 in 10.0 mi Calm Calm - N/A   Clear
1:54 AM 70.0 °F - 63.0 °F 78% 29.82 in 10.0 mi Calm Calm - N/A   Clear
2:54 AM 70.0 °F - 61.0 °F 73% 29.83 in 10.0 mi NE 3.5 mph - N/A   Clear
3:54 AM 68.0 °F - 63.0 °F 84% 29.82 in 10.0 mi Calm Calm - N/A   Clear
4:54 AM 66.0 °F - 62.1 °F 87% 29.82 in 10.0 mi Calm Calm - N/A   Clear
5:54 AM 66.0 °F - 60.1 °F 81% 29.84 in 10.0 mi East 4.6 mph - N/A   Clear
6:54 AM 69.1 °F - 61.0 °F 75% 29.85 in 10.0 mi Calm Calm - N/A   Clear
7:54 AM 75.0 °F - 62.1 °F 64% 29.86 in 10.0 mi Calm Calm - N/A   Clear
8:54 AM 79.0 °F - 63.0 °F 58% 29.86 in 10.0 mi South 5.8 mph - N/A   Clear
9:54 AM 84.9 °F 83.7 °F 55.9 °F 37% 29.84 in 10.0 mi Variable 5.8 mph - N/A   Clear
10:54 AM 88.0 °F 86.1 °F 55.0 °F 32% 29.84 in 10.0 mi Variable 5.8 mph - N/A   Clear
11:54 AM 91.0 °F 89.7 °F 57.0 °F 32% 29.83 in 10.0 mi South 5.8 mph - N/A   Scattered Clouds
12:54 PM 91.0 °F 88.9 °F 55.0 °F 29% 29.81 in 10.0 mi SW 9.2 mph 18.4 mph N/A   Partly Cloudy
1:54 PM 90.0 °F 87.5 °F 53.1 °F 28% 29.80 in 10.0 mi SW 13.8 mph - N/A   Scattered Clouds
2:54 PM 93.0 °F - 52.0 °F 25% 29.78 in 10.0 mi WSW 11.5 mph 21.9 mph N/A   Partly Cloudy
3:54 PM 93.0 °F - 51.1 °F 24% 29.77 in 10.0 mi WSW 10.4 mph - N/A   Clear
4:54 PM 91.0 °F - 51.1 °F 25% 29.77 in 10.0 mi West 10.4 mph - N/A   Clear
5:54 PM 90.0 °F - 51.1 °F 26% 29.77 in 10.0 mi WSW 6.9 mph - N/A   Clear
6:54 PM 88.0 °F - 51.1 °F 28% 29.77 in 10.0 mi SW 8.1 mph - N/A   Clear
7:54 PM 82.0 °F 81.3 °F 54.0 °F 38% 29.79 in 10.0 mi South 4.6 mph - N/A   Clear
8:54 PM 79.0 °F - 55.9 °F 45% 29.81 in 10.0 mi SSE 4.6 mph - N/A   Clear
9:54 PM 75.9 °F - 54.0 °F 46% 29.83 in 10.0 mi NNW 3.5 mph - N/A   Clear
10:54 PM 75.0 °F - 54.0 °F 48% 29.83 in 10.0 mi ESE 3.5 mph - N/A   Clear
11:54 PM 75.9 °F - 48.9 °F 38% 29.83 in 10.0 mi SE 5.8 mph - N/A   Clear